Torna al catalogo

STARLINK-32871

AttivoComunicazioniVLEO
NORAD 62924·PAYLOAD·🇺🇸 United States

Lanciato Feb 8, 2025 da Cape Canaveral Space Force Station

Loading…

Prossimi Passaggi (prossime 24 ore)

TLE

AggiornatoSource: CelesTrak SupGP

Epoca: Sep 15, 2026, 02:28 UTC

1 62924C 25027T   26258.10326389  .00064189  00000+0  23251-2 0  2584
2 62924  43.0025 139.1658 0001491 276.3021 334.1513 15.27544295    13

Traccia STARLINK-32871 in tempo reale con AllMySat

Download on the App Store